Home   Weather   Armidale   Past weeks
Flag for Australia

Past Weather in Armidale, New South Wales, Australia — Yesterday and Last 2 Weeks

Now
71 °F

Mild.


Feels Like: 77 °F
Forecast: 80 / 52 °F
Wind: 9 mph from Northeast

Location: Armidale Airport Aws

Current Time: Oct 15, 2019 at 8:20:04 pm

Latest Report: Oct 15, 2019 at 7:00 pm


Visibility: N/A

Pressure: 29.86 "Hg (26.65 "Hg at 981m altitude)

Humidity: 42%

Dew Point: 46 °F

Location of ArmidaleLocation

Past Weather in Armidale — Graph

°F

Armidale Temperature Yesterday

Maximum temperature yesterday: 70 °F (at 4:00 pm)
Minimum temperature yesterday: 43 °F (at 6:00 am)
Average temperature yesterday: 57 °F

High & Low Weather Summary for the Past Weeks

 TemperatureHumidityPressure
High88 °F (Oct 7, 3:00 pm)100% (Oct 1, 5:00 am)30.38 "Hg (Oct 1, 5:00 am)
Low34 °F (Oct 9, 6:00 am)13% (Oct 7, 4:00 pm)29.80 "Hg (Oct 8, 4:00 pm)
Average57 °F58%30.06 "Hg
* Reported Sep 30 6:00 pm — Oct 15 7:00 pm, Armidale. Weather by CustomWeather, © 2019

Note: Actual official high and low records may vary slightly from our data, if they occured in-between our weather recording intervals... More about our weather records

Advertising

Armidale Weather History for the Previous 24 Hours

Scroll right to see more
 ConditionsComfort  
Time TempWeatherWind HumidityBarometerVisibility
7:00 pm
Tue, Oct 15
71 °FMild.9 mph42%29.86 "HgN/A
6:00 pm78 °FScattered clouds.8 mph24%29.84 "HgN/A
4:00 pm77 °FMild.6 mph23%29.83 "HgN/A
3:00 pm75 °FOvercast.9 mph23%29.84 "HgN/A
1:00 pm76 °FMild.10 mph23%29.88 "HgN/A
12:00 pm76 °FPassing clouds.6 mph32%29.89 "HgN/A
10:00 am68 °FMild.9 mph52%29.93 "HgN/A
9:00 am63 °FMild.10 mph60%29.92 "HgN/A
7:00 am51 °FCool.10 mph98%29.91 "HgN/A
6:00 am49 °FPassing clouds.12 mph99%29.90 "HgN/A
4:00 am51 °FCool.12 mph97%29.90 "HgN/A
3:00 am51 °FCool.12 mph97%29.92 "HgN/A
1:00 am53 °FCool.13 mph90%29.95 "HgN/A
12:00 am55 °FCool.12 mph83%29.94 "HgN/A
10:00 pm
Mon, Oct 14
58 °FCool.9 mph69%29.94 "HgN/A
9:00 pm61 °FRefreshingly cool.No wind49%29.95 "HgN/A
Weather by CustomWeather, © 2019

See weather overview